KG4LKY-5 Weather Reports


time (UTC)temp
C
wind
direction
speed
KPH
gust
KPH
rain 1hr
cm
rain 24hr
cm
rain mn
cm
humidity
%
barometer
mb
20260906060857 20 0 0.0 0.0 0.00 0.00 0.00 1013.7
20260906060356 20 0 0.0 0.0 0.00 0.00 0.00 1013.8
20260906055856 21 0 0.0 0.0 0.00 0.00 0.00 1013.8
20260906055356 21 0 0.0 0.0 0.00 0.00 0.00 1013.8
20260906054349 21 0 0.0 0.0 0.00 0.00 0.00 1013.9
20260906053848 21 0 0.0 0.0 0.00 0.00 0.00 1013.9
20260906053348 21 0 0.0 0.0 0.00 0.00 0.00 1013.9
20260906052348 22 0 0.0 0.0 0.00 0.00 0.00 1014.0
20260906051848 21 0 0.0 0.0 0.00 0.00 0.00 1014.0
20260906051348 21 0 0.0 0.0 0.00 0.00 0.00 1014.0
20260906050845 21 0 0.0 0.0 0.00 0.00 0.00 1014.0
20260906050345 20 0 0.0 0.0 0.00 0.00 0.00 1014.0
20260906045844 21 0 0.0 0.0 0.00 0.00 0.00 1013.9
20260906044844 21 0 0.0 0.0 0.00 0.00 0.00 1014.0
20260906044344 21 0 0.0 0.0 0.00 0.00 0.00 1014.0
20260906043843 21 0 0.0 0.0 0.00 0.00 0.00 1014.2
20260906043344 21 0 0.0 0.0 0.00 0.00 0.00 1014.3
20260906042843 21 0 0.0 0.0 0.00 0.00 0.00 1014.3
20260906041342 22 0 0.0 0.0 0.00 0.00 0.00 1014.0
20260906040843 21 0 0.0 0.0 0.00 0.00 0.00 1013.9
20260906040342 21 0 0.0 0.0 0.00 0.00 0.00 1013.8
20260906035841 22 0 0.0 0.0 0.00 0.00 0.00 1013.7
20260906034340 22 0 0.0 0.0 0.00 0.00 0.00 1013.6
20260906033840 22 0 0.0 0.0 0.00 0.00 0.00 1013.6
20260906033340 22 0 0.0 0.0 0.00 0.00 0.00 1013.5
20260906032339 23 0 0.0 0.0 0.00 0.00 0.00 1013.6
20260906031838 22 0 0.0 0.0 0.00 0.00 0.00 1013.7
20260906031338 22 0 0.0 0.0 0.00 0.00 0.00 1013.7
20260906030838 22 0 0.0 0.0 0.00 0.00 0.00 1013.9
20260906030337 22 0 0.0 0.0 0.00 0.00 0.00 1014.0
20260906025337 23 0 0.0 0.0 0.00 0.00 0.00 1014.1
20260906024837 23 0 0.0 0.0 0.00 0.00 0.00 1014.0
20260906023836 22 0 0.0 0.0 0.00 0.00 0.00 1013.9
20260906023336 23 0 0.0 0.0 0.00 0.00 0.00 1013.9
20260906022835 22 0 0.0 0.0 0.00 0.00 0.00 1013.8
20260906022335 22 0 0.0 0.0 0.00 0.00 0.00 1013.7
20260906021835 23 0 0.0 0.0 0.00 0.00 0.00 100 1013.6
20260906021335 23 0 0.0 0.0 0.00 0.00 0.00 100 1013.5
20260906020834 23 0 0.0 0.0 0.00 0.00 0.00 100 1013.7
20260906020334 23 0 0.0 0.0 0.00 0.00 0.00 100 1013.6
20260906015834 23 0 0.0 0.0 0.00 0.00 0.00 100 1013.7
20260906015333 23 0 0.0 0.0 0.00 0.00 0.00 100 1013.6
20260906014833 23 0 0.0 0.0 0.00 0.00 0.00 100 1013.6
20260906014333 23 0 0.0 0.0 0.00 0.00 0.00 100 1013.5
20260906013332 23 0 0.0 0.0 0.00 0.00 0.00 100 1013.4
20260906012832 23 0 0.0 0.0 0.00 0.00 0.00 100 1013.2
20260906012332 23 0 0.0 0.0 0.00 0.00 0.00 100 1013.0
20260906011832 23 0 0.0 0.0 0.00 0.00 0.00 100 1013.0
20260906011331 23 0 0.0 0.0 0.00 0.00 0.00 100 1013.0
20260906010831 24 0 0.0 0.0 0.00 0.00 0.00 100 1013.0
20260906010331 23 0 0.0 0.0 0.00 0.00 0.00 100 1013.0
20260906005830 24 0 0.0 0.0 0.00 0.00 0.00 100 1012.9
20260906005330 24 0 0.0 0.0 0.00 0.00 0.00 100 1012.8
20260906004830 24 0 0.0 0.0 0.00 0.00 0.00 100 1012.6
20260906004330 24 0 0.0 0.0 0.00 0.00 0.00 100 1012.7
20260906003829 24 0 0.0 0.0 0.00 0.00 0.00 100 1012.7
20260906002829 25 0 0.0 0.0 0.00 0.00 0.00 100 1012.8
20260906002328 25 0 0.0 0.0 0.00 0.00 0.00 100 1012.8
20260906001828 25 0 0.0 0.0 0.00 0.00 0.00 100 1013.0
20260906001328 26 0 0.0 0.0 0.00 0.00 0.00 100 1013.0
20260906000828 26 0 0.0 0.0 0.00 0.00 0.00 100 1013.0
20260906000327 26 0 0.0 0.0 0.00 0.00 0.00 100 1013.0
20260905235327 27 0 0.0 0.0 0.00 0.00 0.00 83 1013.2
20260905234326 28 0 0.0 0.0 0.00 0.00 0.00 75 1013.2
20260905233827 28 0 0.0 0.0 0.00 0.00 0.00 72 1013.3
20260905231323 29 0 0.0 0.0 0.00 0.00 0.00 63 1013.2
20260905230322 30 0 0.0 0.0 0.00 0.00 0.00 61 1013.2
20260905225823 30 330 0.0 4.8 0.00 0.00 0.00 58 1013.2
20260905225322 32 325 0.0 4.8 0.00 0.00 0.00 53 1013.2
20260905224821 32 15 0.0 3.2 0.00 0.00 0.00 50 1013.2
20260905224321 32 0 0.0 0.0 0.00 0.00 0.00 49 1013.0
20260905223821 32 276 0.0 3.2 0.00 0.00 0.00 49 1013.2
20260905222819 32 328 1.6 6.4 0.00 0.00 0.00 49 1013.3
20260905221818 32 315 3.2 9.7 0.00 0.00 0.00 47 1013.2
20260905220818 32 342 0.0 3.2 0.00 0.00 0.00 46 1013.3
20260905220317 31 332 0.0 4.8 0.00 0.00 0.00 49 1013.3
20260905215818 33 329 3.2 12.9 0.00 0.00 0.00 46 1013.3
20260905215318 32 349 8.0 14.5 0.00 0.00 0.00 44 1013.3
20260905214317 33 311 1.6 8.0 0.00 0.00 0.00 45 1013.4
20260905213817 33 323 3.2 9.7 0.00 0.00 0.00 42 1013.2
20260905212815 35 257 0.0 1.6 0.00 0.00 0.00 42 1013.2
20260905212314 34 326 4.8 14.5 0.00 0.00 0.00 41 1013.2
20260905211314 34 333 4.8 9.7 0.00 0.00 0.00 44 1012.9
20260905210313 32 259 6.4 11.3 0.00 0.00 0.00 46 1012.9
20260905205313 32 347 6.4 16.1 0.00 0.00 0.00 45 1012.9
20260905204812 33 332 6.4 12.9 0.00 0.00 0.00 46 1013.0
20260905204312 32 285 6.4 14.5 0.00 0.00 0.00 48 1013.0
20260905202811 33 328 4.8 9.7 0.00 0.00 0.00 47 1013.2
20260905202310 33 262 9.7 16.1 0.00 0.00 0.00 48 1013.3
20260905201810 32 263 8.0 14.5 0.00 0.00 0.00 47 1013.5
20260905201310 32 278 9.7 17.7 0.00 0.00 0.00 49 1013.6
20260905200309 31 323 9.7 16.1 0.00 0.00 0.00 48 1013.8
20260905195308 32 301 8.0 14.5 0.00 0.00 0.00 47 1013.9
20260905194307 32 263 3.2 9.7 0.00 0.00 0.00 49 1014.1
20260905193807 32 263 4.8 11.3 0.00 0.00 0.00 49 1014.1
20260905193307 32 284 1.6 9.7 0.00 0.00 0.00 48 1014.2
20260905192806 32 312 4.8 11.3 0.00 0.00 0.00 50 1014.3
20260905192306 32 242 1.6 6.4 0.00 0.00 0.00 51 1014.4
20260905191806 32 278 3.2 9.7 0.00 0.00 0.00 53 1014.4
20260905191305 31 250 1.6 8.0 0.00 0.00 0.00 51 1014.5
20260905190805 32 211 3.2 8.0 0.00 0.00 0.00 49 1014.6
20260905190305 32 211 1.6 6.4 0.00 0.00 0.00 47 1014.7
20260905185804 30 263 3.2 9.7 0.00 0.00 0.00 53 1014.8
20260905185306 31 240 1.6 6.4 0.00 0.00 0.00 51 1015.0
20260905184802 32 195 1.6 8.0 0.00 0.00 0.00 53 1015.0
20260905184302 31 277 4.8 11.3 0.00 0.00 0.00 55 1015.1
20260905183302 31 218 1.6 8.0 0.00 0.00 0.00 50 1015.2
20260905182801 32 259 3.2 9.7 0.00 0.00 0.00 52 1015.3
20260905182301 32 117 1.6 6.4 0.00 0.00 0.00 51 1015.4
20260905181801 30 260 1.6 8.0 0.00 0.00 0.00 53 1015.7
20260905181300 32 167 1.6 8.0 0.00 0.00 0.00 50 1015.8
20260905180300 31 201 4.8 9.7 0.00 0.00 0.00 55 1015.8
20260905175800 30 253 3.2 11.3 0.00 0.00 0.00 58 1015.8
20260905174759 31 243 4.8 9.7 0.00 0.00 0.00 60 1015.9
20260905174300 30 225 3.2 11.3 0.00 0.00 0.00 63 1016.0
20260905173259 29 108 6.4 11.3 0.00 0.00 0.00 61 1016.2
20260905172758 29 118 8.0 14.5 0.00 0.00 0.00 66 1016.2
20260905172258 28 214 8.0 14.5 0.00 0.00 0.00 66 1016.2
20260905171757 30 108 4.8 9.7 0.00 0.00 0.00 74 1016.2
20260905171257 30 136 6.4 12.9 0.00 0.00 0.00 72 1016.4
20260905170757 29 101 8.0 14.5 0.00 0.00 0.00 70 1016.4
20260905170256 28 98 9.7 16.1 0.00 0.00 0.00 72 1016.5
20260905165756 28 103 8.0 14.5 0.00 0.00 0.00 77 1016.6
20260905165256 28 141 8.0 14.5 0.00 0.00 0.00 79 1016.8
20260905164756 27 103 12.9 19.3 0.00 0.00 0.00 79 1016.9
20260905164255 28 80 8.0 16.1 0.00 0.00 0.00 78 1016.9
20260905163755 27 135 11.3 16.1 0.00 0.00 0.00 83 1016.9
20260905163255 28 121 9.7 16.1 0.00 0.00 0.00 84 1016.9
20260905162755 27 118 11.3 20.9 0.00 0.00 0.00 84 1017.0
20260905162254 27 150 9.7 24.1 0.00 0.00 0.00 86 1017.0
20260905161754 27 125 11.3 17.7 0.00 0.00 0.00 87 1017.0
20260905155751 27 117 12.9 20.9 0.00 0.00 0.00 95 1016.9
20260905155251 26 149 8.0 17.7 0.00 0.00 0.00 97 1016.9
20260905154250 26 115 8.0 19.3 0.00 0.00 0.00 100 1017.0
20260905153750 25 131 6.4 16.1 0.00 0.00 0.00 100 1017.1
20260905153250 25 121 8.0 17.7 0.00 0.00 0.00 100 1017.2
20260905152750 25 117 6.4 14.5 0.00 0.00 0.00 100 1017.2
20260905152249 25 55 4.8 11.3 0.00 0.00 0.00 100 1017.2
20260905151748 25 118 4.8 11.3 0.00 0.00 0.00 100 1017.2
20260905151248 25 124 8.0 19.3 0.00 0.00 0.00 100 1017.0
20260905150748 23 115 4.8 11.3 0.00 0.00 0.00 100 1017.2
20260905144747 23 55 1.6 9.7 0.00 0.00 0.00 100 1017.4
20260905144246 23 91 3.2 11.3 0.00 0.00 0.00 100 1017.4
20260905143246 23 82 3.2 12.9 0.00 0.00 0.00 100 1017.4
20260905141746 23 46 1.6 9.7 0.00 0.00 0.00 100 1017.2
20260905140244 23 142 4.8 11.3 0.00 0.00 0.00 100 1017.4
20260905134742 24 340 3.2 9.7 0.00 0.00 0.00 100 1017.3
20260905134241 23 135 1.6 8.0 0.00 0.00 0.00 100 1016.8
20260905132739 23 322 4.8 16.1 0.00 0.00 0.00 1017.2
20260905132239 23 319 8.0 14.5 0.00 0.00 0.00 1017.2
20260905131740 23 330 1.6 16.1 0.00 0.00 0.00 1016.9
20260905130238 23 0 0.0 0.0 0.00 0.00 0.00 1016.5
20260905125738 22 0 0.0 0.0 0.00 0.00 0.00 1016.4
20260905125237 23 0 0.0 0.0 0.00 0.00 0.00 1016.5
20260905124737 22 0 0.0 0.0 0.00 0.00 0.00 1016.6
20260905124235 22 0 0.0 0.0 0.00 0.00 0.00 1016.5
20260905120732 20 0 0.0 0.0 0.00 0.00 0.00 1016.3
20260905112728 18 0 0.0 0.0 0.00 0.00 0.00 1016.0
20260905112226 19 0 0.0 0.0 0.00 0.00 0.00 1015.9
20260905111226 19 0 0.0 0.0 0.00 0.00 0.00 1015.9
20260905110223 19 0 0.0 0.0 0.00 0.00 0.00 1015.8
20260905105723 20 0 0.0 0.0 0.00 0.00 0.00 1015.9
20260905103716 20 0 0.0 0.0 0.00 0.00 0.00 1015.9
20260905103212 19 0 0.0 0.0 0.00 0.00 0.00 1015.8
20260905102712 20 0 0.0 0.0 0.00 0.00 0.00 1015.7
20260905102211 19 0 0.0 0.0 0.00 0.00 0.00 1015.7
20260905101711 19 0 0.0 0.0 0.00 0.00 0.00 1015.7
20260905100711 19 0 0.0 0.0 0.00 0.00 0.00 1015.6
20260905100210 20 0 0.0 0.0 0.00 0.00 0.00 1015.6
20260905095206 18 0 0.0 0.0 0.00 0.00 0.00 1015.4
20260905094706 20 0 0.0 0.0 0.00 0.00 0.00 1015.6
20260905093203 20 0 0.0 0.0 0.00 0.00 0.00 1015.4
20260905092809 20 0 0.0 0.0 0.00 0.00 0.00 1015.4
20260905092702 20 0 0.0 0.0 0.00 0.00 0.00 1015.4
20260905090201 21 0 0.0 0.0 0.00 0.00 0.00 1015.1
20260905085701 20 0 0.0 0.0 0.00 0.00 0.00 1015.0
20260905085201 19 0 0.0 0.0 0.00 0.00 0.00 1015.1
20260905083657 20 0 0.0 0.0 0.00 0.00 0.00 1015.1
20260905083157 20 0 0.0 0.0 0.00 0.00 0.00 1015.1
20260905082657 19 0 0.0 0.0 0.00 0.00 0.00 1015.1
20260905081656 20 0 0.0 0.0 0.00 0.00 0.00 1015.2
20260905080656 20 0 0.0 0.0 0.00 0.00 0.00 1015.2
20260905080156 20 0 0.0 0.0 0.00 0.00 0.00 1015.2
20260905075655 20 0 0.0 0.0 0.00 0.00 0.00 1015.2
20260905075157 21 0 0.0 0.0 0.00 0.00 0.00 1015.3
20260905073654 20 0 0.0 0.0 0.00 0.00 0.00 1015.6
20260905073154 20 0 0.0 0.0 0.00 0.00 0.00 1015.6
20260905072653 21 0 0.0 0.0 0.00 0.00 0.00 1015.7
20260905071653 20 0 0.0 0.0 0.00 0.00 0.00 1015.8
20260905070652 20 0 0.0 0.0 0.00 0.00 0.00 1015.9
20260905065651 21 0 0.0 0.0 0.00 0.00 0.00 1016.0
20260905065151 21 0 0.0 0.0 0.00 0.00 0.00 1016.1
20260905064651 20 0 0.0 0.0 0.00 0.00 0.00 1016.1
20260905063650 20 0 0.0 0.0 0.00 0.00 0.00 1016.3
20260905063150 20 0 0.0 0.0 0.00 0.00 0.00 1016.3
20260905062147 20 0 0.0 0.0 0.00 0.00 0.00 1016.4